Regional Weather Roundup
Issued by NWS Midland/Odessa, TX

Skip options and go directly to product.
Home | Oldest Version | Next Version | Current Version | All | Text Only | Save Text | Print | Product List | Glossary On

Skip product version selection by date and time.   
846
ASUS44 KMAF 160102
RWRMAF
MIDLAND AREA WEATHER ROUNDUP
NATIONAL WEATHER SERVICE MIDLAND TX
800 PM CDT TUE APR 15 2014

...IN SOUTHWEST TEXAS AND SOUTHEAST NEW MEXICO...

CITY           SKY/WX    TMP DP  RH WIND       PRES   REMARKS
ALPINE         CLEAR     63   8  11 S10G16    30.09F
ANDREWS        FAIR      64   7  10 S12G20    30.01F
ARTESIA        MOCLDY    66   9  10 S17       29.94F
BIG SPRING     CLEAR     65  11  12 S14       30.05F
CARLSBAD       PTCLDY    68   2   7 SE14      29.93F
DRYDEN           N/A     65  11  12 E12       30.03F
FORT STOCKTON  CLEAR     65  10  11 SE16      30.00F
GUAD PASS      MOCLDY    62   1   8 SW15      30.04F
HOBBS          CLEAR     61   3  10 S15       29.99F
MARFA          CLEAR     61   7  11 S9        30.07F
MIDLAND AIRPK  CLEAR     65   9  11 S12G17    30.03F
MIDLAND INTL   CLEAR     64  10  12 S13       30.01F
ODESSA         CLEAR     64   4   9 S15       30.01F
PECOS          CLEAR     69  12  11 E9        29.95F
PRESIDIO       FAIR      73  16  11 NE9       29.95F
SEMINOLE       CLEAR     63   9  12 S15G21    30.01F
SNYDER         CLEAR     64   3   9 S14       30.03F
WINK           CLEAR     68   4   8 SE12      29.96F
$$
...OTHER STATIONS IN TEXAS...

CITY           SKY/WX    TMP DP  RH WIND       PRES   REMARKS
ABILENE        CLEAR     62  12  14 S10       30.06F
AMARILLO       CLEAR     61   6  11 S21G30    29.90F
AUSTIN         CLEAR     57  29  34 E5        30.15F
BROWNSVILLE    CLEAR     57  34  41 NE10      30.19S
CORPUS CHRISTI PTCLDY    61  28  28 SE10      30.16S
DALLAS FTW     CLEAR     57  25  29 SE6       30.12F
DEL RIO        CLEAR     67  15  13 SE10      30.07F
EL PASO        MOCLDY    70   3   7 SE6       29.94F
HOUSTON INT    CLEAR     58  30  34 N3        30.17S
LUBBOCK        MOCLDY    61   5  10 S23G31    29.96F
SAN ANGELO     CLEAR     64  13  13 S9        30.05F
SAN ANTONIO    CLEAR     59  23  25 SE12      30.14F
WACO           CLEAR     54  31  41 E7        30.14F
WICHITA FALLS  NOT AVBL
$$
...OTHER LOCATIONS IN NEW MEXICO...

CITY           SKY/WX    TMP DP  RH WIND       PRES   REMARKS
ALAMAGORDO     MOCLDY    66   5   9 S15G21    29.97F
ALBUQUERQUE    MOCLDY    65  12  12 SW16G23   29.92S
CANNON AFB     MOCLDY    60   6  11 S20       29.91F
CLOVIS         MOCLDY    61   9  12 S20G28    29.94F
HOLLOMAN AFB   MOCLDY    66   5   9 S10       29.95F
ROSWELL        MOCLDY    68   9  10 S21       29.90F
RUIDOSO        CLOUDY    54   3  13 SW23G30   30.02F
SANTA FE       PTCLDY    59   5  11 SW14      29.93F
TRUTH OR CONSE MOCLDY    66   7  10 S22G30    29.92F
TUCUMCARI      CLOUDY    66  12  12 SW28G36   29.81F
$$

USA.gov is the U.S. government's official web portal to all federal, state and local government web resources and services.